User: anonymous   Login
Location: Weston
(26.1283°N, 80.4075°W)
Time: 21:07:29
(UTC-04:00)
Language:

H-2A R/B - Orbit

View from above orbital plane
View from above orbital plane
View from above satellite
View from above satellite

Ground track
Ground track

The orbit data is extracted from the following two-line orbital elements,

1 26899U 01038B   15108.10010825  .00006446  00000-0  20123-2 0  9998
2 26899 028.3944 025.4174 7146017 026.1715 008.2627 02.44910576116985
Epoch (UTC): 18 April 2015 02:24:09
Eccentricity: 0.7146017
inclination: 28.3944°
perigee height: 257 km
apogee height: 33483 km
right ascension of ascending node: 25.4174°
argument of perigee: 26.1715°
revolutions per day: 2.44910576
mean anomaly at epoch: 8.2627°
orbit number at epoch: 11698

The dashed part of the orbit path shows where the satellite is in the earth's shadow,  

DLR